Location: Barcelona
(41.3830°N, 2.1830°E)
Time: 23:03:22
(UTC+02:00)

ISS - Pass Details

Date: 01 August 2020
Orbit: 418 x 420 km, 51.6° (Epoch: 08 August)

Event Time Altitude Azimuth Distance (km) Brightness Sun altitude
Rises 23:34:19 0° 291° (WNW) 2,367 1.0 -22.2°
Reaches altitude 10° 23:36:58 10° 269° (W) 1,499 -0.5 -22.5°
Enters shadow 23:38:17 15° 247° (WSW) 1,234 -1.3 -22.7°
